DECAYED

STARLINK-2271, 48008 (Decayed)

Orbit data source: Space-Track

STARLINK-2271, 48008 was a payload satellite owned by SpaceX/Seattle (US) in LEO that was launched on Wed, 24 Mar 2021 UTC via an FALCON 9 launch vehicle from the Air Force Eastern Test Range (AFETR). Payload-class satellites include a variety of spacecraft equipped with specific instruments for various scientific and technological missions. These include communications satellites like Starlink; space stations such as the ISS; scientific satellites like the Hubble; Earth observation satellites from companies like Planet Labs, Umbra, and HawkEye 360; GPS; miniature CubeSats for education and research; and military/defense satellites.

Not visible in the next 10 days
Identifier
48008, 2021-024AH
Orbit
Decayed
Last TLE update
1 month ago
Origin
Manufacturer
SpaceX/Seattle
Mission
Decayed Commercial Communications
Bus & Motor
STARLINK, Unknown motor
Mass
260 kg wet, ~248 kg dry
Launch date (UTC)
2021-03-24 (4 years ago)
Launch vehicle
FALCON 9
Launch site
Air Force Eastern Test Range (AFETR)
Object type
Payload
Rocket body
Debris
Shape & HBR
Box + 1 Pan, 8.86 m
Radar Cross Section
13.562 m², Large (>1 m²)

Expand to show TLE details & history

TLE from 1 month ago
0 STARLINK-2271
1 48008U 21024AH  25131.83369876  .18890074  12465-4  66658-3 0  9994
2 48008  53.0265 119.5836 0005873 263.3434 164.7094 16.44102317230380
Epoch: 2025-05-11T20:00Z
TLE epoch observation values (Epoch: 2025-05-11T20:00:31.572Z)
Latitude
47.97883°
Longitude
5.76421°
Altitude
163.915 km
Speed
7.812 km/s
True Right ascension
11h 43m 00s
True Declination
47° 47' 32"
Sunlit
Object was in daylight at epoch
Visualization orbit readout
Visualization observer readout
Orbital elements
Apogee altitude
159.041 km
Perigee altitude
151.367 km
Semi-major axis
6,533.341 km
Eccentricity
0.00059
Inclination
53.0265°
RAAN
119.5836°
Arg. of periapsis
263.3434°
True anomaly
Unknown
Mean anomaly
164.7094°
Eccentric anomaly
Unknown
Mean motion
4.10998 °/min
Orbital period
87.59 mins
BSTAR
0.00066658
Loading maneuver chart data...
Loading SW <> Apogee altitude chart data...

STARLINK-2271 Visibility

Observer location: undefined°, undefined°

This satellite is decayed
Span
Click to sort rows by Start time (UTC) header in descending order
Start Az.
Max El. time (UTC)
Max El. Az.
Max El.
End time (UTC)
End Az.
|